Showing default

PUNCH-WFI01, 63179

Orbit data source: Space-Track

PUNCH-WFI01, 63179 is an American payload satellite in SSO that was launched on Wed, 12 Mar 2025 UTC via an FALCON 9 launch vehicle from the Air Force Western Test Range (AFWTR). Payload-class satellites include a variety of spacecraft equipped with specific instruments for various scientific and technological missions. These include communications satellites like Starlink; space stations such as the ISS; scientific satellites like the Hubble; Earth observation satellites from companies like Planet Labs, Umbra, and HawkEye 360; GPS; miniature CubeSats for education and research; and military/defense satellites.

Loading next visibility...
Identifier
63179, 2025-047B
Orbit
SSO
Country
Flag of USUS
Related business
Manufacturer
SWRI
Mission
Operational Civil Astronomy
Bus & Motor
PUNCH, Unknown motor
Mass
64 kg wet, 64 kg dry
Launch date (UTC)
2025-03-12 (8 months ago)
Launch vehicle
FALCON 9
Launch site
Air Force Western Test Range (AFWTR)
Object type
Payload
Rocket body
Debris
Shape & HBR
Box + 1 Pan, 1.9 m
Radar Cross Section
0.625 m², Medium (>0.1 m² and < 1m²)

Expand to show TLE details & history
Last TLE update: 11 hours ago

TLE from 11 hours ago
0 PUNCH-WFI01
1 63179U 25047B   25308.45504697  .00000947  00000-0  15196-3 0  9997
2 63179  97.9552 132.8868 0009186 171.2078 188.9293 14.73913276 34955
Epoch: 2025-11-04T10:55Z
TLE epoch observation values (Epoch: 2025-11-04T10:55:16.058Z)
Latitude
-0.00001°
Longitude
-74.87193°
Altitude
657.993 km
Speed
7.525 km/s
True Right ascension
08h 51m 32s
True Declination
0° 00' 00"
Sunlit
Object was in daylight at epoch
Visualization orbit readout
Latitude
Unknown
Longitude
Unknown
Altitude
Unknown
Speed
Unknown
Apparent Right ascension
Unknown
Apparent Declination
Unknown
Sunlit
N/A
Visualization observer readout
Local Sidereal Time
17:43:20
Azimuth
Unknown
Elevation
Unknown
Doppler factor
Unknown
Orbital elements
Apogee altitude
652.107 km
Perigee altitude
639.202 km
Semi-major axis
7,023.792 km
Eccentricity
0.00092
Inclination
97.9552°
RAAN
132.8868°
Arg. of periapsis
171.2078°
True anomaly
188.91298°
Mean anomaly
188.9293°
Eccentric anomaly
188.92114°
Mean motion
3.68711 °/min
Orbital period
97.64 mins
BSTAR
0.00015196
Loading maneuver chart data...
Computing Atmospheric mass density...
Loading historical data...
Loading historical data...
Loading historical data...
Loading historical data...
Loading historical data...
Loading historical data...
Loading historical data...
Other satellites on launch #47 in the year 2025 (2025-03-12 UTC)

Documentation

Showing up to 5 results
|